Погода в Апаче

Россия / Камчатский край     52°55′07″N   157°02′29″E
темп.,
°C
ветер,
м/с
пор.,
м/с
влажн.,
%
обл.,
%
осадки,
мм/ч
давл.,
гПа
погр.,
м
28 ноября, вс
вс2800:00−7св2394100 0.8 1001131
03:00−10всв2285100 0.1 100271
06:00−11св2283100 0.2 100365
09:00−12всв118782 0.1 100585
12:00−11з1288100 0.2 1006304
15:00−11зсз347652 0.1 1006433
18:00−14ссз228615 0.1 100746
21:00−16всв22909 0.0 100836
29 ноября, пн
пн2900:00−17в22899 0.0 100944
03:00−17в228721 0.0 101049
06:00−16в338097 0.0 101148
09:00−14в227798 0.0 101238
12:00−10в118078 0.0 101278
15:00−8зсз228995 0.0 1012159
18:00−10вюв2297100 0.1 101310
21:00−11в339689 0.0 101327
30 ноября, вт
вт3000:00−9в3392100 0.0 101137
03:00−8всв4485100 0.0 100958
06:00−7всв3584100 0.1 100696
09:00−7всв4793100 1.3 1004221
12:00−6ссз2394100 4.4 1007236
15:00−5сз9148955 0.3 1010875
18:00−6зсз6117874 0.8 1014179
21:00−7зсз6117740 0.1 1017169
1 декабря, ср
ср100:00−10ю018999 0.1 102010
03:00−13в229249 0.0 102212
06:00−9вюв3393100 0.1 102361
09:00−8юв3392100 0.2 102460
12:00−6вюв3391100 0.9 1024144
15:00−4вюв3589100 0.3 1022261
18:00−4в61085100 0.3 1018252
21:00−4в81591100 1.5 1014428
2 декабря, чт
чт200:00−4в101689100 2.6 1009285
03:00−3в101789100 6.1 1004241
06:00+3вюв111987100 6.8 998326
09:00+5вюв142492100 6.6 991486
12:00+5юв132294100 13.8 988463
15:00+5ююв61197100 1.4 984165
18:00+1юз101798100 2.9 984854
21:000ююз14217418 0.6 985858